Showing default

QIANFAN-39, 62240

Orbit data source: Space-Track

QIANFAN-39, 62240 is a Chinese payload satellite in LEO that was launched on Thu, 05 Dec 2024 UTC via a CHANG ZHENG 6A launch vehicle from the Taiyaun Space Center, China (TSC). Payload-class satellites include a variety of spacecraft equipped with specific instruments for various scientific and technological missions. These include communications satellites like Starlink; space stations such as the ISS; scientific satellites like the Hubble; Earth observation satellites from companies like Planet Labs, Umbra, and HawkEye 360; GPS; miniature CubeSats for education and research; and military/defense satellites.

Loading next visibility...
Identifier
62240, 2024-232D
Orbit
LEO
Country
Flag of CNCN / PRC
Related business
Manufacturer
SECM
Mission
Operational Commercial Communications
Bus & Motor
QIANFAN, Unknown motor
Mass
267 kg wet, ~267 kg dry
Launch date (UTC)
2024-12-05 (9 months ago)
Launch vehicle
CHANG ZHENG 6A
Launch site
Taiyaun Space Center, China (TSC)
Object type
Payload
Rocket body
Debris
Shape & HBR
Box + 1 Pan, 5.0 m
Radar Cross Section
13.200 m², Large (>1 m²)

Expand to show TLE details & history
Last TLE update: 21 hours ago

TLE from 21 hours ago
0 QIANFAN-39
1 62240U 24232D   25261.19527012  .00000322  00000-0  13051-3 0  9990
2 62240  88.9975  47.0808 0016086   7.0295 353.1120 14.25246800 89209
Epoch: 2025-09-18T04:41Z
TLE epoch observation values (Epoch: 2025-09-18T04:41:11.338Z)
Latitude
-0.00006°
Longitude
-20.57679°
Altitude
799.246 km
Speed
7.46 km/s
True Right ascension
03h 08m 19s
True Declination
0° 00' 00"
Sunlit
Object was in full shadow at epoch
Visualization orbit readout
Latitude
Unknown
Longitude
Unknown
Altitude
Unknown
Speed
Unknown
Apparent Right ascension
Unknown
Apparent Declination
Unknown
Sunlit
N/A
Visualization observer readout
Local Sidereal Time
18:32:59
Azimuth
Unknown
Elevation
Unknown
Doppler factor
Unknown
Orbital elements
Apogee altitude
816.161 km
Perigee altitude
793.053 km
Semi-major axis
7,182.744 km
Eccentricity
0.00161
Inclination
88.9975°
RAAN
47.0808°
Arg. of periapsis
7.0295°
True anomaly
353.08985°
Mean anomaly
353.112°
Eccentric anomaly
353.10093°
Mean motion
3.56539 °/min
Orbital period
100.97 mins
BSTAR
0.00013051
Loading maneuver chart data...
Computing Atmospheric mass density...
Loading historical data...
Loading historical data...
Loading historical data...
Loading historical data...
Loading historical data...
Loading historical data...
Loading historical data...

Documentation

Showing up to 5 results
|